When you browse on this site, cookies collect data to enhance your experience and personalize the content and advertising you see.
Visit our Privacy Policy to learn more. By continuing to use the site, you agree to this use of cookies and data.
  • In United Kingdom
  • List of Countries
  • For 7 days
  • Water Temperature
  • Weather Map
  • Weather Widgets
  • user-avatar
    Login

    Hourly Weather Bolestraszyce

    Today, 4 April, Saturday

    Time Temperature Precipitation Wind Pressure Humidity
    00:00 +5°C° 0 mm 1 mps 745 mmHg 82%
    01:00 +4°C° 0 mm 1 mps 746 mmHg 83%
    02:00 +4°C° 0 mm 1 mps 746 mmHg 84%
    03:00 +3°C° 0 mm 1 mps 747 mmHg 85%
    04:00 +3°C° 0 mm 1 mps 747 mmHg 85%
    05:00 +3°C° 0 mm 1 mps 747 mmHg 86%
    06:00 +4°C° 0 mm 1 mps 748 mmHg 81%
    07:00 +4°C° 0 mm 0 mps 748 mmHg 76%
    08:00 +5°C° 0 mm 0 mps 749 mmHg 72%
    09:00 +7°C° 0 mm 1 mps 749 mmHg 64%
    10:00 +9°C° 0 mm 1 mps 750 mmHg 56%
    11:00 +10°C° 0 mm 1 mps 750 mmHg 48%
    12:00 +10°C° 0 mm 2 mps 750 mmHg 47%
    13:00 +10°C° 0 mm 2 mps 750 mmHg 45%
    14:00 +10°C° 0 mm 2 mps 750 mmHg 43%
    15:00 +10°C° 0 mm 2 mps 751 mmHg 44%
    16:00 +10°C° 0 mm 2 mps 751 mmHg 45%
    17:00 +10°C° 0 mm 2 mps 751 mmHg 46%
    18:00 +8°C° 0 mm 2 mps 751 mmHg 53%
    19:00 +7°C° 0 mm 2 mps 752 mmHg 60%
    20:00 +5°C° 0 mm 2 mps 752 mmHg 66%
    21:00 +6°C° 0 mm 1 mps 753 mmHg 69%
    22:00 +5°C° 0 mm 1 mps 753 mmHg 72%
    23:00 +5°C° 0 mm 1 mps 754 mmHg 75%

    Tomorrow, 5 April, Sunday

    Time Temperature Precipitation Wind Pressure Humidity
    00:00 +4°C° 0 mm 1 mps 754 mmHg 76%
    01:00 +4°C° 0 mm 1 mps 755 mmHg 78%
    02:00 +3°C° 0 mm 1 mps 755 mmHg 79%
    03:00 +3°C° 0 mm 1 mps 755 mmHg 80%
    04:00 +3°C° 0 mm 1 mps 755 mmHg 80%
    05:00 +3°C° 0 mm 1 mps 755 mmHg 80%
    06:00 +4°C° 0 mm 1 mps 756 mmHg 76%
    07:00 +4°C° 0 mm 2 mps 756 mmHg 71%
    08:00 +5°C° 0 mm 2 mps 756 mmHg 66%
    09:00 +5°C° 0 mm 3 mps 757 mmHg 61%
    10:00 +8°C° 0 mm 3 mps 757 mmHg 55%
    11:00 +10°C° 0 mm 4 mps 757 mmHg 49%
    12:00 +10°C° 0 mm 4 mps 757 mmHg 47%
    13:00 +11°C° 0 mm 4 mps 757 mmHg 44%
    14:00 +12°C° 0 mm 4 mps 756 mmHg 42%
    15:00 +12°C° 0 mm 4 mps 756 mmHg 42%
    16:00 +12°C° 0 mm 4 mps 756 mmHg 43%
    17:00 +12°C° 0 mm 4 mps 756 mmHg 44%
    18:00 +10°C° 0 mm 4 mps 756 mmHg 49%
    19:00 +7°C° 0 mm 4 mps 756 mmHg 54%
    20:00 +7°C° 0 mm 3 mps 756 mmHg 59%
    21:00 +5°C° 0 mm 3 mps 757 mmHg 60%
    22:00 +4°C° 0 mm 3 mps 757 mmHg 61%
    23:00 +4°C° 0 mm 3 mps 757 mmHg 62%

    Day after tomorrow, 6 April, Monday

    Time Temperature Precipitation Wind Pressure Humidity
    00:00 +3°C° 0 mm 3 mps 757 mmHg 63%
    01:00 +3°C° 0 mm 3 mps 757 mmHg 64%
    02:00 +3°C° 0 mm 3 mps 757 mmHg 64%
    03:00 +2°C° 0 mm 3 mps 757 mmHg 65%
    04:00 +2°C° 0 mm 3 mps 757 mmHg 66%
    05:00 +2°C° 0 mm 3 mps 757 mmHg 67%
    06:00 +3°C° 0 mm 3 mps 757 mmHg 64%
    07:00 +4°C° 0 mm 3 mps 757 mmHg 62%
    08:00 +5°C° 0 mm 3 mps 757 mmHg 59%
    09:00 +8°C° 0 mm 3 mps 757 mmHg 54%
    10:00 +10°C° 0 mm 3 mps 757 mmHg 50%
    11:00 +12°C° 0 mm 4 mps 757 mmHg 45%
    12:00 +13°C° 0 mm 4 mps 757 mmHg 43%
    13:00 +14°C° 0 mm 3 mps 757 mmHg 42%
    14:00 +14°C° 0 mm 3 mps 757 mmHg 40%
    15:00 +14°C° 0 mm 3 mps 756 mmHg 42%
    16:00 +14°C° 0 mm 3 mps 756 mmHg 43%
    17:00 +15°C° 0 mm 2 mps 756 mmHg 45%
    18:00 +13°C° 0 mm 2 mps 756 mmHg 51%
    19:00 +10°C° 0 mm 3 mps 756 mmHg 57%
    20:00 +9°C° 0 mm 3 mps 756 mmHg 63%
    21:00 +8°C° 0 mm 2 mps 756 mmHg 64%
    22:00 +7°C° 0 mm 2 mps 756 mmHg 65%
    23:00 +6°C° 0 mm 2 mps 756 mmHg 66%

    7 April, Tuesday

    Time Temperature Precipitation Wind Pressure Humidity
    00:00 +6°C° 0 mm 2 mps 756 mmHg 66%
    01:00 +6°C° 0 mm 2 mps 756 mmHg 66%
    02:00 +5°C° 0 mm 2 mps 756 mmHg 65%
    03:00 +5°C° 0 mm 2 mps 757 mmHg 64%
    04:00 +5°C° 0 mm 2 mps 757 mmHg 63%
    05:00 +4°C° 0 mm 2 mps 757 mmHg 62%
    06:00 +6°C° 0 mm 2 mps 757 mmHg 59%
    07:00 +7°C° 0 mm 2 mps 757 mmHg 57%
    08:00 +8°C° 0 mm 2 mps 757 mmHg 54%
    09:00 +10°C° 0 mm 2 mps 757 mmHg 49%
    10:00 +13°C° 0 mm 2 mps 757 mmHg 44%
    11:00 +15°C° 0 mm 2 mps 757 mmHg 38%
    12:00 +16°C° 0 mm 2 mps 757 mmHg 36%
    13:00 +17°C° 0 mm 2 mps 757 mmHg 34%
    14:00 +18°C° 0 mm 2 mps 756 mmHg 32%
    15:00 +18°C° 0 mm 2 mps 756 mmHg 34%
    16:00 +18°C° 0 mm 2 mps 756 mmHg 36%
    17:00 +18°C° 0 mm 2 mps 755 mmHg 38%
    18:00 +15°C° 0 mm 1 mps 755 mmHg 44%
    19:00 +13°C° 0 mm 1 mps 755 mmHg 50%
    20:00 +11°C° 0 mm 1 mps 755 mmHg 57%
    21:00 +10°C° 0 mm 1 mps 756 mmHg 57%
    22:00 +10°C° 0 mm 1 mps 756 mmHg 58%
    23:00 +9°C° 0 mm 1 mps 756 mmHg 59%

    8 April, Wednesday

    Time Temperature Precipitation Wind Pressure Humidity
    00:00 +9°C° 0 mm 1 mps 756 mmHg 60%
    01:00 +8°C° 0 mm 1 mps 756 mmHg 61%
    02:00 +8°C° 0 mm 1 mps 756 mmHg 62%
    03:00 +7°C° 0 mm 1 mps 756 mmHg 63%
    04:00 +6°C° 0 mm 0 mps 756 mmHg 64%
    05:00 +6°C° 0 mm 0 mps 756 mmHg 65%
    06:00 +7°C° 0 mm 0 mps 756 mmHg 63%
    07:00 +8°C° 0 mm 0 mps 756 mmHg 61%
    08:00 +9°C° 0 mm 0 mps 756 mmHg 59%
    09:00 +12°C° 0 mm 1 mps 756 mmHg 53%
    10:00 +14°C° 0 mm 1 mps 756 mmHg 48%
    11:00 +16°C° 0 mm 1 mps 756 mmHg 43%
    12:00 +16°C° 0 mm 1 mps 755 mmHg 41%
    13:00 +18°C° 0 mm 1 mps 755 mmHg 38%
    14:00 +18°C° 0 mm 2 mps 754 mmHg 36%
    15:00 +18°C° 0 mm 2 mps 754 mmHg 37%
    16:00 +19°C° 0 mm 1 mps 754 mmHg 37%
    17:00 +19°C° 0 mm 1 mps 754 mmHg 37%
    18:00 +16°C° 0 mm 1 mps 753 mmHg 42%
    19:00 +14°C° 0 mm 1 mps 753 mmHg 48%
    20:00 +12°C° 0 mm 1 mps 753 mmHg 53%
    21:00 +11°C° 0 mm 1 mps 753 mmHg 55%
    22:00 +11°C° 0 mm 1 mps 753 mmHg 57%
    23:00 +10°C° 0 mm 1 mps 753 mmHg 59%

    9 April, Thursday

    Time Temperature Precipitation Wind Pressure Humidity
    00:00 +10°C° 0 mm 1 mps 753 mmHg 60%
    01:00 +8°C° 0 mm 0 mps 753 mmHg 61%
    02:00 +8°C° 0 mm 0 mps 753 mmHg 62%
    03:00 +7°C° 0 mm 0 mps 753 mmHg 63%
    04:00 +7°C° 0 mm 0 mps 753 mmHg 64%
    05:00 +7°C° 0 mm 0 mps 753 mmHg 66%
    06:00 +8°C° 0 mm 0 mps 753 mmHg 63%
    07:00 +9°C° 0 mm 0 mps 753 mmHg 61%
    08:00 +10°C° 0 mm 0 mps 753 mmHg 59%
    09:00 +13°C° 0 mm 1 mps 753 mmHg 55%
    10:00 +15°C° 0 mm 1 mps 753 mmHg 50%
    11:00 +18°C° 0 mm 1 mps 752 mmHg 46%
    12:00 +19°C° 0 mm 1 mps 752 mmHg 43%
    13:00 +20°C° 0 mm 1 mps 752 mmHg 41%
    14:00 +20°C° 0 mm 1 mps 752 mmHg 39%
    15:00 +20°C° 0 mm 1 mps 751 mmHg 40%
    16:00 +20°C° 0 mm 1 mps 751 mmHg 41%
    17:00 +20°C° 0 mm 1 mps 751 mmHg 42%
    18:00 +18°C° 0 mm 1 mps 751 mmHg 47%
    19:00 +15°C° 0 mm 1 mps 751 mmHg 53%
    20:00 +13°C° 0 mm 1 mps 751 mmHg 58%
    21:00 +12°C° 0 mm 1 mps 751 mmHg 60%
    22:00 +12°C° 0 mm 1 mps 751 mmHg 62%
    23:00 +11°C° 0 mm 1 mps 751 mmHg 64%
    Show more